Regional Weather Roundup
Issued by NWS

Home | Current Version | Previous Version | Text Only | Print | Product List | Glossary Off
Versions: 1 2 3 4 5 6 7 8 9 10 11 12 13 14 15 16 17 18 19 20 21 22 23 24 25 26 27 28 29 30 31 32 33 34 35 36 37 38 39 40 41 42 43 44 45 46 47 48 49 50

000
ASUS43 KMKX 311621
RWRWI

WISCONSIN REGIONAL WEATHER ROUNDUP
NATIONAL WEATHER SERVICE MILWAUKEE/SULLIVAN WI
1100 AM CDT MON AUG 31 2015

NOTE: "FAIR" INDICATES FEW OR NO CLOUDS BELOW 12,000 FEET WITH NO
SIGNIFICANT WEATHER AND/OR OBSTRUCTIONS TO VISIBILITY.

WIZ001-002-006>008-014>016-023>028-311700-
NORTHWEST WISCONSIN

CITY           SKY/WX    TMP DP  RH WIND       PRES   REMARKS
SUPERIOR ARPT  SUNNY     75  66  74 S13G20    29.88F
ASHLAND        SUNNY     76  66  71 S13       29.92S
HAYWARD        CLOUDY    70  64  81 S15       29.98R
SIREN          PTSUNNY   75  67  75 S9G16     29.93F
CUMBERLAND     CLOUDY    68  64  88 S9        29.98S FOG
RICE LAKE      CLOUDY    69  66  88 S8        30.00S
CHETEK         CLOUDY   N/A N/A N/A S6        30.00S
LADYSMITH      CLOUDY    67  66  96 S9        30.02F FOG
EAU CLAIRE     CLOUDY    72  66  81 S10       29.99S
MENOMONIE      CLOUDY    72  69  90 S9        30.00S FOG
NEW RICHMOND   CLOUDY    73  68  85 S14       29.97S
OSCEOLA        CLOUDY    74  72  93 S12G20    29.98S
$$

WIZ003>005-009-010-017-018-311700-
NORTH CENTRAL WISCONSIN

CITY           SKY/WX    TMP DP  RH WIND       PRES   REMARKS
MANITOWISH WTR SUNNY     71  64  79 S10       30.00S
ARBOR VITAE    SUNNY     72  65  78 S12       30.01F
WOODRUFF       SUNNY     72  65  78 S12       30.01F
RHINELANDER    CLOUDY    70  63  78 SW9       30.04S
EAGLE RIVER    SUNNY     72  62  70 SW8       30.02S
LAND O LAKES   SUNNY     74  62  64 S9        30.01S
PHILLIPS       CLOUDY    67  64  89 S8        30.01F
TOMAHAWK       CLOUDY    67  64  90 SW3       30.04S
MEDFORD        CLOUDY    66  65  98 S6        30.04S FOG
MERRILL        CLOUDY    66  66 100 SW6       30.05S FOG
$$

WIZ029-030-035-036-043>047-311700-
CENTRAL WISCONSIN

CITY           SKY/WX    TMP DP  RH WIND       PRES   REMARKS
WAUSAU         CLOUDY    67  64  90 S5        30.03S FOG
MOSINEE        NOT AVBL
MARSHFIELD     CLOUDY    69  64  84 SW8       30.05S
STEVENS POINT  CLOUDY    65  65  98 SW3       30.06R FOG
WAUPACA        CLOUDY    70  69  96 SW6       30.05S
WAUTOMA        CLOUDY    73  69  87 SW7       30.06S
WISC RAPIDS    CLOUDY    70  66  87 SW5       30.06R
CAMP DOUGLAS   CLOUDY    72  72 100 S6        30.04S
$$

WIZ011>013-019>022-031-037>040-048>050-311700-
NORTHEAST WISCONSIN

CITY           SKY/WX    TMP DP  RH WIND       PRES   REMARKS
ANTIGO         CLOUDY    67  66  95 SW8       30.05S
SHAWANO        CLOUDY    70  67  88 W6        30.04F
OCONTO         CLOUDY    66  66 100 W8        30.03S
STURGEON BAY   CLOUDY    66  63  88 SW12      30.06S
GREEN BAY      CLOUDY    72  66  81 SW7       30.05R
MANITOWOC      PTSUNNY   74  66  76 MISG      30.05S
APPLETON       CLOUDY    70  66  88 SW6       30.05R
CLINTONVILLE   CLOUDY    70  64  83 SW6       30.05S
OSHKOSH        CLOUDY    71  65  81 VRB3      30.06R
$$

WIZ032>034-041-042-053>061-311700-
SOUTHWEST WISCONSIN

CITY           SKY/WX    TMP DP  RH WIND       PRES   REMARKS
LA CROSSE      CLOUDY    72  66  81 SE8       30.01F
SPARTA         CLOUDY    71  66  85 S7        30.05S
VIROQUA          N/A     73  71  95 S7        30.06S
BOSCOBEL       SUNNY     75  68  78 CALM      30.04F
PRAIRIE DU CHI SUNNY     74  67  79 SW3       30.03F
PLATTEVILLE    SUNNY     74  71  90 S10       30.07S
$$

WIZ056-057-062-063-064-067-068-311700-
SOUTH CENTRAL WISCONSIN

CITY           SKY/WX    TMP DP  RH WIND       PRES   REMARKS
REEDSBURG      PTSUNNY   74  68  82 S5        30.05F
BARABOO/DELLS  PTSUNNY   74  66  75 S8        30.06S
LONE ROCK      SUNNY     76  68  76 S6        30.05F
MINERAL POINT  SUNNY     73  70  88 S3        30.07S
MADISON        PTSUNNY   73  66  78 S8        30.06S
MIDDLETON      MOSUNNY   76  69  78 S7        30.07F
WATERTOWN      CLOUDY    72  71  96 SW3       30.08S
MONROE         SUNNY     73  68  83 S7        30.07F
JANESVILLE     MOSUNNY   72  70  94 S3        30.07F
$$

WIZ051-052-058>065-066-070>072-311700-
SOUTHEAST WISCONSIN

CITY           SKY/WX    TMP DP  RH WIND       PRES   REMARKS
MILWAUKEE      CLOUDY    73  65  75 W7        30.08S
WAUKESHA       CLOUDY    68  64  88 SW6       30.10R
MILWAUKEE/TIMM CLOUDY    72  63  73 W9        30.09R
RACINE         CLOUDY    75  66  73 VRB3      30.10S
BURLINGTON     PTSUNNY   73  67  80 W5        30.09R
KENOSHA        MOSUNNY   76  68  76 CALM      30.09S HAZE
FOND DU LAC    CLOUDY    71  66  84 SW8       30.07R
SHEBOYGAN      PTSUNNY   74  67  78 W8        30.06S
WEST BEND      CLOUDY    72  63  73 CALM      30.08R
JUNEAU         CLOUDY    68  64  88 CALM      30.09S
$$

LSZ147-162-311700-
LAKE SUPERIOR

STATION/POSITION TIME  TEMP    WIND        PRES    WAVE
                       AIR SEA DIR/SP/G            HT/PER
                 (UTC) (F)     (DEG/KT/KT) (MB)    (FT/S)
W MID LAKE BUOY  1550   59 55  160/  6/  6 1012.6F   1
DEVILS ISLAND    1600   69     250/  2/  4 1012.2R
PORT WING        1500   72     180/ 13/ 16 1012.2F
SAXON HARBOR     1500   74     190/  9/ 17 1012.2S
$$

LMZ867-665-643>646-311700-
LAKE MICHIGAN

STATION/POSITION TIME  TEMP    WIND        PRES    WAVE
                       AIR SEA DIR/SP/G            HT/PER
                 (UTC) (F)     (DEG/KT/KT) (MB)    (FT/S)
CHAMBERS ISLAND  1500   64     210/  3/  8 1016.6R
N MID LAKE BUOY  1550   62 65  210/ 14/ 16 1016.2R   2/ 4
NORTHPORT PIER   1500   66     180/  3/  8 1016.3R
SHEBOYGAN LAKESH 1600   63     170/ 16/ 16 1018.0R
PORT WASHINGTON  1500   62     180/ 10/ 12 1018.6S
S MID LAKE BUOY  1550   66 70  270/  2/  4 1018.8R   0
KENOSHA   LAKESH 1600   62     160/  7/  8 1018.6R
$$

TC  - TEMPERATURE IN CELSIUS
VSB - VISIBILITY IN STATUTE MILES
WCI - WIND CHILL INDEX
HX  - HEAT INDEX



USA.gov is the U.S. government's official web portal to all federal, state and local government web resources and services.